カタログに戻る

STARLINK-34173

運用中通信VLEO
NORAD 64196·PAYLOAD·🇺🇸 United States

打ち上げ May 28, 2025 から Cape Canaveral Space Force Station

Loading…

次のパス (今後24時間)

TLE

最新Source: CelesTrak SupGP

元期: Sep 15, 2026, 03:23 UTC

1 64196C 25113AC  26258.14145833  .00001843  00000+0  59237-4 0  2583
2 64196  53.1593 289.7072 0001319  93.5004 183.2705 15.31708476    13

AllMySatでSTARLINK-34173をリアルタイム追跡

Download on the App Store